Location: Anumalkud?ru
(16.4847°N, 80.6636°E)
Time: 14:41:08
(UTC+00:00)

OAO 3 Rocket - Pass Details

Date: 11 April 2026
Orbit: 613 x 660 km, 35.0° (Epoch: 11 May)

Event Time Altitude Azimuth Distance (km) Brightness Sun altitude
Rises 14:21:08 0° 236° (SW) 2,898 7.1 -21.7°
Reaches altitude 10° 14:23:27 10° 236° (SW) 2,000 6.2 -22.2°
Maximum altitude 14:28:07 89° 146° (SE) 639 3.0 -23.3°
Enters shadow 14:28:38 71° 60° (ENE) 673 3.0 -23.4°
